Muskegon, MI

9:01 AM EDT on September 19, 2017 (GMT -0400)
Muskegon County

Weather History for KMKG - February, 2010

Change the Weather History Date:

Friday, February 26, 2010

  Actual Average Record
Temperature  
Mean Temperature 29 °F 29 °F  
Max Temperature 31 °F 36 °F 66 °F (2000)
Min Temperature 26 °F 23 °F -12 °F (1963)
Degree Days  
Heating Degree Days 36 36  
Month to date heating degree days 1008 991  
Since 1 July heating degree days 4643 4663  
Cooling Degree Days 0 0  
Month to date cooling degree days 0 0  
Year to date cooling degree days 0 0  
Moisture  
Dew Point 26 °F    
Average Humidity 80    
Maximum Humidity 85    
Minimum Humidity 75    
Precipitation  
Precipitation 0.23 in 0.07 in 1.65 in (2009)
Month to date precipitation 2.02 1.68  
Year to date precipitation 3.04 3.71  
Snow  
Snow 3.60 in 0.50 in 6.50 in (1921)
Month to date snowfall 28.1 18.3  
Since 1 July snowfall 73.2 81.4  
Snow Depth 10.00 in    
Sea Level Pressure  
Sea Level Pressure 29.85 in    
Wind  
Wind Speed 17 mph (NNW)    
Max Wind Speed 31 mph    
Max Gust Speed 37 mph    
Visibility 4 miles    
Events Fog , Snow    
T = Trace of Precipitation, MM = Missing Value Source: NWS Daily Summary

Daily Weather History Graph

Daily Weather History Graph

Search for Another Location

Airport or City:

Trip Planner

Search our weather history database for the weather conditions in past years. The results will help you decide how hot, cold, wet, or windy it might be!

Date:

Astronomy

Feb. 26, 2010 Rise Set
Actual Time 7:25 AM EST 6:30 PM EST
Civil Twilight 6:57 AM EST 6:59 PM EST
Nautical Twilight 6:24 AM EST 7:32 PM EST
Astronomical Twilight 5:51 AM EST 8:04 PM EST
Moon 4:19 PM EST (2/26) 5:59 AM EST (2/26)
Length of Visible Light 12h 01m
Length of Day
11h 04m
Waxing Gibbous, 94% of the Moon is Illuminated
Feb 26
Waxing Gibbous
Feb 28
Full
Mar 7
Last Quarter
Mar 15
New
Mar 23
First Quarter

Hourly Weather History & Observations

Time (EST) Temp. Windchill Dew Point Humidity Pressure Visibility Wind Dir Wind Speed Gust Speed Precip Events Conditions
12:55 AM 27.0 °F 15.2 °F 21.9 °F 81% 30.01 in 10.0 mi NNW 15.0 mph 21.9 mph N/A   Overcast
1:55 AM 27.0 °F 13.5 °F 21.9 °F 81% 30.01 in 10.0 mi North 19.6 mph 25.3 mph N/A   Overcast
2:55 AM 27.0 °F 14.3 °F 21.0 °F 78% 29.98 in 10.0 mi NNW 17.3 mph 24.2 mph N/A   Overcast
3:55 AM 27.0 °F 13.5 °F 21.9 °F 81% 29.97 in 10.0 mi NNW 19.6 mph 28.8 mph N/A   Overcast
4:55 AM 27.0 °F 13.9 °F 21.9 °F 81% 29.97 in 10.0 mi NNW 18.4 mph 28.8 mph N/A   Overcast
5:55 AM 27.0 °F 15.2 °F 21.9 °F 81% 29.95 in 10.0 mi NNW 15.0 mph 25.3 mph N/A   Overcast
6:55 AM 27.0 °F 14.7 °F 21.0 °F 78% 29.95 in 10.0 mi NNW 16.1 mph 23.0 mph N/A   Mostly Cloudy
7:55 AM 28.0 °F 15.7 °F 21.9 °F 78% 29.94 in 10.0 mi NNW 17.3 mph - N/A   Overcast
8:39 AM 28.4 °F 16.2 °F 23.0 °F 80% 29.92 in 10.0 mi NNW 17.3 mph 26.5 mph N/A   Overcast
8:55 AM 28.0 °F 15.7 °F 23.0 °F 81% 29.93 in 10.0 mi NNW 17.3 mph 27.6 mph N/A   Overcast
9:55 AM 28.9 °F 16.1 °F 24.1 °F 82% 29.90 in 10.0 mi NW 19.6 mph 25.3 mph N/A   Overcast
10:47 AM 30.2 °F 18.5 °F 24.8 °F 80% 29.87 in 9.0 mi NNW 17.3 mph 34.5 mph 0.00 in Snow Light Snow
10:55 AM 30.0 °F 18.3 °F 25.0 °F 82% 29.89 in 10.0 mi NNW 17.3 mph 25.3 mph 0.00 in   Overcast
11:55 AM 30.9 °F 21.2 °F 25.0 °F 79% 29.87 in 9.0 mi NW 12.7 mph 23.0 mph 0.00 in   Overcast
12:55 PM 30.9 °F 17.2 °F 25.0 °F 79% 29.86 in 10.0 mi NNW 25.3 mph 32.2 mph N/A   Overcast
1:35 PM 30.2 °F 16.2 °F 24.8 °F 80% 29.83 in 8.0 mi NNW 25.3 mph 33.4 mph 0.00 in Snow Light Snow
1:55 PM 30.9 °F 18.7 °F 25.0 °F 79% 29.84 in 9.0 mi NW 19.6 mph 27.6 mph 0.00 in Snow Light Snow
2:45 PM 30.2 °F 18.9 °F 26.6 °F 86% 29.79 in 2.0 mi NW 16.1 mph 32.2 mph 0.00 in Snow Light Snow
2:53 PM 30.2 °F 18.5 °F 26.6 °F 86% 29.79 in 1.5 mi NW 17.3 mph 29.9 mph 0.00 in Snow Light Snow
2:55 PM 30.9 °F 19.1 °F 26.1 °F 82% 29.82 in 1.5 mi NNW 18.4 mph 29.9 mph 0.00 in Snow Light Snow
3:14 PM 30.2 °F 18.5 °F 26.6 °F 86% 29.79 in 0.8 mi NNW 17.3 mph 28.8 mph 0.00 in Snow Light Snow
3:32 PM 30.2 °F 18.5 °F 26.6 °F 86% 29.80 in 0.5 mi NNW 17.3 mph 28.8 mph 0.00 in Fog , Snow Snow
3:41 PM 30.2 °F 18.1 °F 26.6 °F 86% 29.80 in 0.2 mi NNW 18.4 mph - 0.00 in Fog , Snow Snow
3:49 PM 30.2 °F 18.5 °F 26.6 °F 86% 29.80 in 0.2 mi NNW 17.3 mph - 0.01 in Fog , Snow Snow
3:55 PM 30.0 °F 17.9 °F 27.0 °F 88% 29.83 in 0.2 mi NNW 18.4 mph 25.3 mph 0.01 in Fog , Snow Snow
4:00 PM 30.2 °F 17.8 °F 26.6 °F 86% 29.80 in 0.5 mi NNW 19.6 mph 25.3 mph 0.00 in Fog , Snow Snow
4:14 PM 30.2 °F 18.5 °F 26.6 °F 86% 29.80 in 0.8 mi NNW 17.3 mph 24.2 mph 0.00 in Snow Light Snow
4:25 PM 30.2 °F 18.9 °F 26.6 °F 86% 29.80 in 1.0 mi NW 16.1 mph 25.3 mph 0.00 in Snow Light Snow
4:55 PM 30.0 °F 17.2 °F 26.1 °F 85% 29.83 in 1.0 mi NNW 20.7 mph 29.9 mph 0.00 in Snow Light Snow
5:18 PM 30.2 °F 18.1 °F 26.6 °F 86% 29.80 in 0.8 mi NNW 18.4 mph 26.5 mph 0.00 in Snow Light Snow
5:28 PM 30.2 °F 17.1 °F 26.6 °F 86% 29.80 in 0.8 mi NNW 21.9 mph 29.9 mph 0.00 in Snow Light Snow
5:48 PM 30.2 °F 19.3 °F 26.6 °F 86% 29.80 in 1.0 mi NNW 15.0 mph - 0.00 in Snow Light Snow
5:55 PM 30.0 °F 17.5 °F 26.1 °F 85% 29.83 in 1.0 mi NNW 19.6 mph 26.5 mph 0.00 in Snow Light Snow
6:13 PM 30.2 °F 18.1 °F 26.6 °F 86% 29.81 in 0.8 mi NNW 18.4 mph 24.2 mph 0.00 in Snow Light Snow
6:20 PM 30.2 °F 18.1 °F 26.6 °F 86% 29.81 in 1.0 mi NNW 18.4 mph - 0.00 in Snow Light Snow
6:42 PM 30.2 °F 19.3 °F 26.6 °F 86% 29.82 in 1.0 mi NNW 15.0 mph - 0.00 in Snow Light Snow
6:55 PM 30.0 °F 19.1 °F 27.0 °F 88% 29.84 in 1.0 mi NNW 15.0 mph - 0.00 in Snow Light Snow
7:55 PM 30.0 °F 20.0 °F 27.0 °F 88% 29.84 in 2.0 mi NNW 12.7 mph - 0.00 in Snow Light Snow
8:55 PM 30.0 °F 20.0 °F 27.0 °F 88% 29.85 in 2.0 mi NNW 12.7 mph - 0.00 in Snow Light Snow
9:08 PM 30.2 °F 20.8 °F 26.6 °F 86% 29.82 in 2.0 mi NNW 11.5 mph - 0.00 in Snow Light Snow
9:19 PM 30.2 °F 21.9 °F 26.6 °F 86% 29.82 in 2.0 mi NNW 9.2 mph - 0.00 in Snow Light Snow
9:28 PM 30.2 °F 21.3 °F 26.6 °F 86% 29.82 in 1.8 mi NNW 10.4 mph - 0.00 in Snow Light Snow
9:35 PM 30.2 °F 21.3 °F 26.6 °F 86% 29.82 in 2.0 mi NNW 10.4 mph - 0.00 in Snow Light Snow
9:38 PM 30.2 °F 20.2 °F 26.6 °F 86% 29.82 in 1.8 mi NNW 12.7 mph - 0.00 in Snow Light Snow
9:53 PM 30.2 °F 20.2 °F 26.6 °F 86% 29.82 in 1.5 mi NNW 12.7 mph - 0.01 in Snow Light Snow
9:55 PM 30.0 °F 20.0 °F 27.0 °F 88% 29.84 in 1.5 mi NNW 12.7 mph - 0.01 in Snow Light Snow
10:06 PM 30.2 °F 20.8 °F 26.6 °F 86% 29.81 in 1.8 mi NNW 11.5 mph - 0.00 in Snow Light Snow
10:13 PM 30.2 °F 19.3 °F 26.6 °F 86% 29.81 in 2.0 mi NNW 15.0 mph - 0.00 in Snow Light Snow
10:55 PM 30.0 °F 20.5 °F 27.0 °F 88% 29.84 in 2.0 mi NNW 11.5 mph - 0.00 in Snow Light Snow
11:01 PM 30.2 °F 20.8 °F 26.6 °F 86% 29.81 in 1.2 mi NNW 11.5 mph - 0.00 in Snow Light Snow
11:22 PM 30.2 °F 21.3 °F 26.6 °F 86% 29.81 in 2.0 mi NNW 10.4 mph - 0.01 in Snow Light Snow
11:27 PM 30.2 °F 21.3 °F 26.6 °F 86% 29.81 in 3.0 mi NNW 10.4 mph - 0.01 in Snow Light Snow
11:55 PM 30.0 °F 21.1 °F 27.0 °F 88% 29.84 in 4.0 mi North 10.4 mph - 0.01 in Snow Light Snow